World > North America > United States > Florida

Fort Myers Beach, Florida Regional Weather

Lat: 26.45N, Lon: 81.95W
Wx Zone: FLZ165
Feedback

Fort Myers Beach, FL Regional Weather

Expires:201908211000;;975673
ASUS42 KTBW 210919
RWRFL 
FLORIDA REGIONAL WEATHER ROUNDUP
NATIONAL WEATHER SERVICE TAMPA BAY RUSKIN FL
500 AM EDT WED AUG 21 2019

NOTE: "FAIR" INDICATES FEW OR NO CLOUDS BELOW 12,000 FEET WITH NO
SIGNIFICANT WEATHER AND/OR OBSTRUCTIONS TO VISIBILITY.


FLZ066-069-070-075>078-162-262-165-265-211000-
SOUTHWEST FLORIDA AND KEYS
  
CITY           SKY/WX    TMP DP  RH WIND       PRES   REMARKS
PUNTA GORDA    FAIR      75  75 100 E5        30.06S                  
FT MYERS       FAIR      76  74  93 E3        30.03F                  
SOUTHWEST INTL FAIR      77  74  90 E6        30.04S                  
NAPLES         FAIR      78  75  90 E6        30.03S                  
IMMOKALEE      FAIR      75  73  94 CALM      30.03S                  
MARATHON       FAIR      83  75  77 SE6       30.02F                  
KEY WEST NAS   FAIR      83  75  77 SE9       30.01S                  
KEY WEST INTL  FAIR      82  75  79 E9        30.02F                  

STATION/POSITION SKY/WX   TEMP    WIND        PRES    WAVE   SWELL
                          AIR SEA DIR/SP/G            HT/PER HT/PER
                          (F)     (DEG/KT/KT) (MB)    (FT/S) (FT/S)
NAPLES                     78 86              1017.0F
26.0N   85.6W              84 85  110/  6/  8 1016.4R   2/ 5   2/ 5
DRY TORTUGAS               83     120/ 14/ 16 1016.5S
SAND KEY                   84     120/ 13/ 15 1015.2F
SOMBRERO KEY               83     120/  9/ 11 1016.7F
LONG KEY                   83                 1015.8F

$$

SKY/WX - Weather  TMP - Temperature  DP - Dew Point  RH - Relative Humidity
WIND - Wind Direction/Speed PRES - Barometric Pressure VSB - Visibility
WCI - Wind Chill Index E13G22 Wind - East Wind 13 mph/Gusts of 22 mph